Date String (YYYY-MM-DD hh:mm:ss) UTC,Instrument flags,Ambient pressure (hPa),Sample flow (lpm),Bypass flow (lpm),Sample temperature (°C),Ambient temperature (°C),ASC tube jacket temperature (°C),LED temperature (°C),Box temperature (°C),Sample RH (%),Span deviation,Mass concentration (μg/m³),Mass concentration (μg/m³),Mass concentration (μg/m³)
DateTimeUTC,F1_M11,P_M11,Q1_M11,Q2_M11,T1_M11,T2_M11,T3_M11,T4_M11,T5_M11,U1_M11,ZSPAN_M11,X2_M11,X0_M11,X1_M11
2023-04-05 09:00:00,,0824.9,5.00,0.00,22.0,20.2,00.0,30.5,23.2,09.6,0000.9,0004.32,0006.05,0004.16
2023-04-05 09:01:00,,0824.8,5.01,0.00,22.0,20.5,00.0,30.4,23.4,09.6,0001.4,0004.33,0006.04,0004.17
2023-04-05 09:02:00,,0824.9,5.01,0.00,22.1,21.5,00.0,30.4,23.9,09.6,0001.5,0004.35,0006.14,0004.19
2023-04-05 09:03:00,,0824.9,5.01,0.00,22.2,22.4,00.0,30.4,24.2,09.5,0001.6,0004.37,0006.21,0004.21
2023-04-05 09:04:00,,0824.9,4.99,0.00,22.4,22.8,00.0,30.4,24.2,09.5,0001.7,0004.40,0006.30,0004.24
2023-04-05 09:05:00,,0824.9,5.00,0.00,22.3,22.4,00.0,30.5,23.9,09.5,0002.0,0004.41,0006.29,0004.26
2023-04-05 09:06:00,,0824.9,4.99,0.00,22.3,21.8,00.0,30.5,23.6,09.5,0001.9,0004.44,0006.41,0004.28
2023-04-05 09:07:00,,0824.9,5.00,0.00,22.2,21.1,00.0,30.5,23.4,09.5,0002.8,0004.48,0006.52,0004.30
2023-04-05 09:08:00,,0824.9,5.00,0.00,22.1,20.6,00.0,30.5,23.2,09.6,0003.2,0004.49,0006.50,0004.33
2023-04-05 09:09:00,,0824.9,5.00,0.00,22.0,20.1,00.0,30.5,23.0,09.6,0002.8,0004.51,0006.51,0004.35
2023-04-05 09:10:00,,0824.9,5.02,0.00,22.0,20.3,00.0,30.4,23.2,09.7,0002.4,0004.53,0006.52,0004.38
2023-04-05 09:11:00,,0824.9,5.01,0.00,22.1,21.4,00.0,30.4,23.7,09.7,0002.2,0004.58,0006.78,0004.40
2023-04-05 09:12:00,,0824.9,4.99,0.00,22.3,22.4,00.0,30.4,24.1,09.6,0002.6,0004.63,0006.93,0004.45
2023-04-05 09:13:00,,0824.9,5.00,0.00,22.4,22.9,00.0,30.4,24.2,09.5,0002.6,0004.64,0006.90,0004.46
2023-04-05 09:14:00,,0824.9,4.99,0.00,22.4,22.5,00.0,30.5,24.0,09.5,0002.4,0004.66,0006.93,0004.47
2023-04-05 09:15:00,,0824.9,5.00,0.00,22.3,21.9,00.0,30.5,23.7,09.5,0001.9,0004.65,0007.07,0004.47
2023-04-05 09:16:00,,0824.9,5.00,0.00,22.2,21.3,00.0,30.6,23.5,09.6,0001.8,0004.66,0007.27,0004.48
2023-04-05 09:17:00,,0824.9,5.01,0.00,22.1,20.9,00.0,30.6,23.4,09.6,0002.1,0004.67,0007.28,0004.49
2023-04-05 09:18:00,,0824.9,5.01,0.00,22.1,20.5,00.0,30.5,23.3,09.7,0001.6,0004.66,0007.21,0004.49
2023-04-05 09:19:00,,0824.9,5.00,0.00,22.0,20.3,00.0,30.5,23.2,09.7,0001.3,0004.68,0007.34,0004.50
2023-04-05 09:20:00,,0824.9,5.01,0.00,22.0,21.0,00.0,30.4,23.6,09.7,0001.7,0004.67,0007.67,0004.50
2023-04-05 09:21:00,,0824.9,5.00,0.00,22.2,22.2,00.0,30.4,24.1,09.6,0001.9,0004.69,0008.33,0004.50
2023-04-05 09:22:00,,0825.0,5.00,0.00,22.3,22.9,00.0,30.4,24.2,09.5,0002.1,0004.73,0008.51,0004.52
2023-04-05 09:23:00,,0825.0,4.99,0.00,22.3,22.6,00.0,30.5,24.1,09.5,0001.7,0004.68,0008.45,0004.49
2023-04-05 09:24:00,,0825.0,5.00,0.00,22.3,22.2,00.0,30.6,23.9,09.5,0001.3,0004.69,0008.45,0004.49
2023-04-05 09:25:00,,0825.0,5.00,0.00,22.3,21.7,00.0,30.6,23.8,09.5,0001.5,0004.70,0008.48,0004.51
2023-04-05 09:26:00,,0825.0,5.01,0.00,22.2,21.4,00.0,30.6,23.6,09.5,0002.0,0004.73,0008.48,0004.53
2023-04-05 09:27:00,,0825.0,5.00,0.00,22.1,21.0,00.0,30.6,23.5,09.5,0002.1,0004.76,0008.35,0004.56
2023-04-05 09:28:00,,0825.0,5.00,0.00,22.1,20.8,00.0,30.6,23.4,09.5,0001.4,0004.79,0008.40,0004.58
2023-04-05 09:29:00,,0824.9,5.01,0.00,22.1,20.5,00.0,30.5,23.4,09.5,0001.4,0004.84,0008.50,0004.61
2023-04-05 09:30:00,,0824.9,5.01,0.00,22.1,21.0,00.0,30.5,23.7,09.5,0001.1,0004.87,0008.50,0004.64
2023-04-05 09:31:00,,0825.0,5.00,0.00,22.2,22.0,00.0,30.4,24.1,09.5,0000.6,0004.91,0008.29,0004.67
2023-04-05 09:32:00,,0825.0,5.00,0.00,22.4,23.0,00.0,30.5,24.4,09.4,0000.4,0004.92,0007.54,0004.68
2023-04-05 09:33:00,,0825.0,4.99,0.00,22.5,23.1,00.0,30.5,24.3,09.4,0000.1,0004.88,0007.26,0004.67
2023-04-05 09:34:00,,0825.0,4.99,0.00,22.4,22.6,00.0,30.6,24.0,09.4,0000.2,0004.87,0007.69,0004.67
2023-04-05 09:35:00,,0824.9,5.00,0.00,22.4,22.1,00.0,30.6,23.8,09.4,0000.4,0004.86,0007.94,0004.67
2023-04-05 09:36:00,,0825.0,5.00,0.00,22.3,21.5,00.0,30.6,23.6,09.4,0000.6,0004.84,0007.90,0004.67
2023-04-05 09:37:00,,0825.0,5.00,0.00,22.3,21.1,00.0,30.6,23.5,09.5,0000.7,0004.83,0007.90,0004.67
2023-04-05 09:38:00,,0824.9,5.01,0.00,22.2,20.7,00.0,30.6,23.4,09.5,0001.1,0004.82,0007.90,0004.67
2023-04-05 09:39:00,,0825.0,5.00,0.00,22.1,20.4,00.0,30.6,23.3,09.5,0001.4,0004.82,0007.90,0004.66
2023-04-05 09:40:00,,0825.1,5.00,0.00,22.1,20.4,00.0,30.6,23.4,09.6,0001.2,0004.80,0007.86,0004.64
2023-04-05 09:41:00,,0825.1,5.00,0.00,22.2,21.3,00.0,30.5,23.8,09.5,0001.3,0004.75,0007.78,0004.62
2023-04-05 09:42:00,,0825.1,5.00,0.00,22.3,22.4,00.0,30.5,24.2,09.4,0001.2,0004.74,0007.81,0004.60
2023-04-05 09:43:00,,0825.2,5.01,0.00,22.4,22.9,00.0,30.5,24.3,09.3,0001.4,0004.74,0007.82,0004.60
2023-04-05 09:44:00,,0825.2,5.00,0.00,22.4,22.6,00.0,30.6,24.1,09.3,0001.7,0004.72,0007.80,0004.58
2023-04-05 09:45:00,,0825.2,4.99,0.00,22.4,22.2,00.0,30.6,23.9,09.4,0001.6,0004.73,0007.51,0004.58
2023-04-05 09:46:00,,0825.2,5.01,0.00,22.3,21.8,00.0,30.6,23.8,09.4,0001.7,0004.73,0006.91,0004.58
2023-04-05 09:47:00,,0825.2,5.01,0.00,22.3,21.5,00.0,30.7,23.7,09.4,0001.4,0004.73,0007.19,0004.58
2023-04-05 09:48:00,,0825.1,5.00,0.00,22.2,21.2,00.0,30.6,23.6,09.4,0001.3,0004.76,0007.45,0004.59
2023-04-05 09:49:00,,0825.2,4.99,0.00,22.2,20.9,00.0,30.6,23.5,09.4,0001.2,0004.78,0007.53,0004.59
2023-04-05 09:50:00,,0825.1,5.00,0.00,22.1,20.6,00.0,30.6,23.5,09.5,0001.2,0004.77,0007.53,0004.59
2023-04-05 09:51:00,,0825.1,5.01,0.00,22.1,20.5,00.0,30.6,23.5,09.5,0001.9,0004.76,0007.49,0004.59
2023-04-05 09:52:00,,0825.1,5.00,0.00,22.2,21.2,00.0,30.5,23.8,09.5,0001.8,0004.77,0007.51,0004.60
2023-04-05 09:53:00,,0825.1,5.01,0.00,22.3,22.2,00.0,30.5,24.2,09.4,0001.8,0004.75,0007.43,0004.60
2023-04-05 09:54:00,,0825.2,5.00,0.00,22.5,23.2,00.0,30.5,24.5,09.3,0001.8,0004.75,0007.44,0004.59
2023-04-05 09:55:00,,0825.2,4.99,0.00,22.6,23.3,00.0,30.6,24.5,09.3,0001.5,0004.75,0007.56,0004.59
2023-04-05 09:56:00,,0825.2,4.99,0.00,22.5,22.8,00.0,30.7,24.2,09.3,0001.8,0004.74,0007.53,0004.59
2023-04-05 09:57:00,,0825.2,5.01,0.00,22.5,22.4,00.0,30.7,24.1,09.3,0001.5,0004.73,0007.50,0004.59
2023-04-05 09:58:00,,0825.2,5.00,0.00,22.5,22.0,00.0,30.7,23.9,09.3,0001.5,0004.72,0007.25,0004.58
2023-04-05 09:59:00,,0825.2,4.99,0.00,22.4,21.6,00.0,30.7,23.8,09.3,0001.3,0004.69,0006.90,0004.57
